DW8108 Weather Reports


Display with metric or nautical units.
time (UTC)temp
F
wind
direction
speed
MPH
gust
MPH
rain 1hr
in
rain 24hr
in
rain mn
in
humidity
%
barometer
mb
20260503060122 41 0.0 8.0 0.00 0.00 0.00 77 1016.6
20260503054601 41 0.0 7.0 0.00 0.00 0.00 78 1016.7
20260503053056 41 0.0 5.0 0.00 0.00 0.00 79 1016.8
20260503051554 41 0.0 5.0 0.00 0.00 0.00 80 1016.9
20260503050053 41 0.0 4.0 0.00 0.00 0.00 81 1017.0
20260503044550 42 0.0 3.0 0.00 0.00 0.00 82 1017.0
20260503043050 42 0.0 4.0 0.00 0.00 0.00 80 1016.9
20260503041554 42 0.0 4.0 0.00 0.00 0.00 80 1017.0
20260503040050 42 0.0 4.0 0.00 0.00 0.00 83 1017.2
20260503034556 42 0.0 5.0 0.00 0.00 0.00 85 1017.3
20260503033056 42 0.0 4.0 0.00 0.00 0.00 85 1017.2
20260503031547 43 0.0 3.0 0.00 0.00 0.00 86 1017.2
20260503030048 43 0.0 3.0 0.00 0.00 0.00 85 1017.3
20260503024545 44 0.0 0.0 0.00 0.00 0.00 84 1017.3
20260503023046 44 0.0 0.0 0.00 0.00 0.00 83 1017.4
20260503021545 46 0.0 0.0 0.00 0.00 0.00 81 1017.3
20260503020044 47 0.0 2.0 0.00 0.00 0.00 79 1017.3
20260503014543 47 0.0 2.0 0.00 0.00 0.00 71 1017.2
20260503013051 48 0.0 1.0 0.00 0.00 0.00 64 1017.1
20260503011544 50 0.0 1.0 0.00 0.00 0.00 59 1017.1
20260503010107 51 0.0 3.0 0.00 0.00 0.00 59 1017.0
20260503004541 52 0.0 6.0 0.00 0.00 0.00 56 1017.0
20260503003040 53 0.0 3.0 0.00 0.00 0.00 53 1017.0
20260503001539 53 0.0 3.0 0.00 0.00 0.00 50 1017.0
20260503000039 53 0.0 6.0 0.00 0.00 0.00 47 1017.1
20260502234540 53 0.0 9.0 0.00 0.00 0.00 46 1017.1
20260502233036 54 0.0 9.0 0.00 0.00 0.00 44 1017.2
20260502231536 55 0.0 11.0 0.00 0.00 0.00 44 1017.1
20260502230035 55 0.0 5.0 0.00 0.00 0.00 41 1017.2
20260502224534 56 0.0 6.0 0.00 0.00 0.00 42 1017.2
20260502223034 57 0.0 7.0 0.00 0.00 0.00 38 1017.3
20260502221533 57 0.0 8.0 0.00 0.00 0.00 41 1017.3
20260502220033 57 0.0 10.0 0.00 0.00 0.00 41 1017.4
20260502214537 57 0.0 8.0 0.00 0.00 0.00 42 1017.4
20260502213032 56 0.0 10.0 0.00 0.00 0.00 43 1017.4
20260502211531 57 0.0 8.0 0.00 0.00 0.00 41 1017.3
20260502210032 58 0.0 9.0 0.00 0.00 0.00 39 1017.6
20260502204527 58 0.0 10.0 0.00 0.00 0.00 41 1017.8
20260502203025 57 0.0 11.0 0.00 0.00 0.00 42 1017.9
20260502201524 57 0.0 11.0 0.00 0.00 0.00 45 1018.2
20260502200020 56 0.0 7.0 0.00 0.00 0.00 43 1018.3
20260502194516 55 0.0 7.0 0.00 0.00 0.00 48 1018.6
20260502193015 54 0.0 10.0 0.00 0.00 0.00 45 1018.7
20260502191514 54 0.0 8.0 0.00 0.00 0.00 47 1018.8
20260502190020 55 0.0 10.0 0.00 0.00 0.00 44 1018.9
20260502184510 55 0.0 9.0 0.00 0.00 0.00 47 1019.1
20260502183010 52 0.0 9.0 0.00 0.00 0.00 51 1019.1
20260502181509 53 0.0 11.0 0.00 0.00 0.00 49 1019.3
20260502163157 50 0.0 8.0 0.00 0.00 0.00 55 1020.3
20260502161557 50 0.0 10.0 0.00 0.00 0.00 53 1020.3
20260502160106 50 0.0 12.0 0.00 0.00 0.00 55 1020.3
20260502151602 51 0.0 10.0 0.00 0.00 0.00 55 1020.4
20260502123023 34 0.0 0.0 0.00 0.00 0.00 93 1020.0
20260502121520 33 0.0 0.0 0.00 0.00 0.00 93 1019.9
20260502114527 31 0.0 0.0 0.00 0.00 0.00 91 1019.7
20260502113020 31 0.0 0.0 0.00 0.00 0.00 91 1019.6
20260502111515 31 0.0 0.0 0.00 0.00 0.00 90 1019.5
20260502110018 31 0.0 0.0 0.00 0.00 0.00 89 1019.4
20260502104519 31 0.0 0.0 0.00 0.00 0.00 89 1019.3
20260502103011 31 0.0 0.0 0.00 0.00 0.00 88 1019.2
20260502101510 31 0.0 0.0 0.00 0.00 0.00 88 1019.2
20260502091504 33 0.0 0.0 0.00 0.00 0.00 88 1019.2
20260502070047 38 0.0 0.0 0.00 0.03 0.00 81 1019.1
20260502064610 39 0.0 0.0 0.00 0.12 0.00 82 1019.1